Weather observations for the past three days for
Venice Municipal Airport
Imperial (Metric)
Date Time (edt) Wind (mph) Vis. (mi.) Weather Sky Cond. Temperature (ºF) Relative Humidity Wind Chill (°F) Heat Index (°F) Pressure Precipitation (in)
Air Dwpt 6 hour altimeter (in) sea level (mb) 1 hr 3 hr 6 hr
Max. Min.
21 16:55 W 8 10.00 Fair CLR 93.2 82.4 71% 117 30 0.0
21 16:35 W 10 10.00 Fair CLR 91.4 82.4 75% 114 30 0.0
21 16:15 W 10 10.00 Fair CLR 91.4 82.4 75% 114 30 0.0
21 15:35 W 9 10.00 Mostly Cloudy FEW042 SCT050 BKN065 91.4 82.4 75% 114 30.02 0.0
21 15:15 W 9 10.00 Mostly Cloudy SCT041 BKN050 BKN065 91.4 82.4 75% 114 30.03 0.0
21 14:55 W 10 10.00 Partly Cloudy FEW038 SCT047 SCT075 91.4 82.4 75% 114 30.04 0.0
21 14:35 W 10 10.00 A Few Clouds FEW075 FEW090 91.4 82.4 75% 114 30.04 0.0
21 14:15 W 8 G 16 10.00 Partly Cloudy SCT047 SCT055 91.4 82.4 75% 114 30.05 0.0
21 13:55 W 8 10.00 Mostly Cloudy FEW035 BKN047 BKN055 89.6 82.4 79% 111 30.06 0.0
21 13:35 W 8 G 14 10.00 Partly Cloudy SCT046 SCT060 91.4 82.4 75% 114 30.06 0.0
21 13:15 Vrbl 7 10.00 Partly Cloudy SCT044 SCT050 93.2 77 59% 107 30.07 0.0
21 12:55 NE 9 G 17 10.00 Partly Cloudy SCT043 SCT050 93.2 77 59% 107 30.07 0.0
21 12:35 E 10 10.00 A Few Clouds FEW040 93.2 77 59% 107 30.07 0.0
21 12:15 NE 8 10.00 A Few Clouds FEW040 93.2 77 59% 107 30.08 0.0
21 11:55 E 7 G 16 10.00 A Few Clouds FEW034 91.4 78.8 67% 108 30.08 0.0
21 11:35 E 9 G 15 10.00 A Few Clouds FEW033 91.4 80.6 71% 111 30.08 0.0
21 11:15 Vrbl 5 G 14 10.00 A Few Clouds FEW032 89.6 80.6 75% 108 30.09 0.0
21 10:55 Vrbl 3 G 13 10.00 Fair CLR 89.6 80.6 75% 108 30.09 0.0
21 10:35 Vrbl 5 G 14 10.00 Fair CLR 89.6 82.4 79% 111 30.09 0.0
21 10:15 Vrbl 5 G 15 10.00 Fair CLR 87.8 82.4 84% 108 30.09 0.0
21 09:55 Vrbl 6 G 14 10.00 Fair CLR 87.8 84.2 89% 112 30.09 0.0
21 09:35 Vrbl 7 G 14 10.00 Fair CLR 86 84.2 94% 108 30.09 0.0
21 09:15 E 6 10.00 Fair CLR 84.2 84.2 100% 104 30.09 0.0
21 08:55 E 6 10.00 Fair CLR 84.2 84.2 100% 104 30.09 0.0
21 08:35 Vrbl 7 10.00 Fair CLR 82.4 82.4 100% 96 30.08 0.0
21 08:15 Vrbl 3 10.00 Fair CLR 82.4 82.4 100% 96 30.08 0.0
21 07:55 Calm 10.00 Fair CLR 80.6 80.6 100% 89 30.08 0.0
21 07:35 E 7 10.00 Fair CLR 80.6 80.6 100% 89 30.08 0.0
21 07:15 E 8 10.00 Fair CLR 78.8 78.8 100% 83 30.07 0.0
21 06:55 SE 5 10.00 Fair CLR 78.8 78.8 100% 83 30.06 0.0
21 06:35 Vrbl 6 10.00 Fair CLR 78.8 78.8 100% 83 30.05 0.0
21 06:15 Vrbl 5 10.00 Fair CLR 78.8 78.8 100% 83 30.05 0.0
21 05:55 E 5 G 12 10.00 Fair CLR 78.8 78.8 100% 83 30.05 0.0
21 05:35 Vrbl 5 G 12 10.00 Fair CLR 78.8 78.8 100% 83 30.05 0.0
21 05:15 SE 3 G 12 10.00 Partly Cloudy SCT041 78.8 78.8 100% 83 30.05 0.0
21 04:55 Calm 10.00 Mostly Cloudy BKN041 BKN047 78.8 78.8 100% 83 30.06 0.0
21 04:35 NE 7 10.00 Overcast OVC041 78.8 78.8 100% 83 30.06 0.0
21 04:15 NE 9 10.00 Overcast OVC041 78.8 78.8 100% 83 30.06 0.0
21 03:55 Vrbl 6 10.00 Overcast OVC041 78.8 78.8 100% 83 30.06 0.0
21 03:35 E 9 10.00 Mostly Cloudy BKN038 BKN045 78.8 78.8 100% 83 30.06 0.0
21 03:15 Vrbl 5 10.00 Mostly Cloudy SCT039 BKN045 80.6 80.6 100% 89 30.06 0.0
21 02:55 NE 5 10.00 Mostly Cloudy BKN039 BKN045 80.6 80.6 100% 89 30.07 0.0
21 02:35 E 10 10.00 Mostly Cloudy BKN036 BKN042 80.6 80.6 100% 89 30.08 0.0
21 02:15 E 9 10.00 Mostly Cloudy SCT034 BKN042 80.6 80.6 100% 89 30.09 0.0
21 01:55 E 8 10.00 Partly Cloudy SCT040 80.6 80.6 100% 89 30.1 0.0
21 01:35 NE 9 10.00 Partly Cloudy SCT042 SCT048 80.6 80.6 100% 89 30.12 0.0
21 01:15 E 8 10.00 Thunderstorm in Vicinity FEW036 FEW044 80.6 80.6 100% 89 30.13 0.0
21 00:55 NE 8 10.00 Thunderstorm in Vicinity FEW036 BKN044 80.6 80.6 100% 89 30.12 0.0
21 00:35 NE 9 10.00 Thunderstorm in Vicinity SCT042 80.6 80.6 100% 89 30.12 0.0
20 23:55 NE 9 10.00 Thunderstorm in Vicinity FEW032 FEW039 80.6 80.6 100% 89 30.13 0.0
20 23:35 NE 7 10.00 Thunderstorm in Vicinity CLR 82.4 82.4 100% 96 30.13 0.0
20 23:15 Calm 10.00 Thunderstorm in Vicinity CLR 82.4 82.4 100% 96 30.13 0.0
20 22:55 E 7 10.00 A Few Clouds FEW046 FEW055 FEW065 82.4 82.4 100% 96 30.12 0.0
20 22:35 NE 10 10.00 Thunderstorm in Vicinity SCT041 SCT047 BKN055 84.2 84.2 100% 104 30.13 0.0
20 22:15 E 9 10.00 Partly Cloudy FEW027 SCT048 84.2 82.4 94% 101 30.13 0.0
20 21:55 E 7 G 14 10.00 Mostly Cloudy FEW029 BKN050 BKN060 86 82.4 89% 105 30.12 0.0
20 21:35 Calm 10.00 Mostly Cloudy FEW028 FEW036 BKN050 89.6 84.2 84% 115 30.11 0.0
20 21:15 SW 5 10.00 Overcast SCT028 BKN033 OVC049 87.8 84.2 89% 112 30.11 0.0
20 20:55 SW 5 10.00 Mostly Cloudy SCT029 BKN034 BKN046 87.8 84.2 89% 112 30.1 0.0
20 20:35 SW 5 10.00 Fair CLR 89.6 82.4 79% 111 30.09 0.0
20 20:15 Calm 10.00 Fair CLR 89.6 82.4 79% 111 30.09 0.0
20 19:55 SW 6 10.00 Fair CLR 89.6 82.4 79% 111 30.08 0.0
20 19:35 SW 6 10.00 A Few Clouds FEW029 89.6 82.4 79% 111 30.08 0.0
20 19:15 SW 8 10.00 Fair CLR 89.6 82.4 79% 111 30.08 0.0
20 18:55 SW 9 10.00 Fair CLR 91.4 82.4 75% 114 30.07 0.0
20 18:35 SW 12 G 17 10.00 Thunderstorm in Vicinity CLR 91.4 80.6 71% 111 30.07 0.0
20 18:15 SW 12 G 17 10.00 Thunderstorm in Vicinity CLR 91.4 80.6 71% 111 30.07 0.0
20 17:55 SW 10 G 17 10.00 Thunderstorm in Vicinity CLR 91.4 80.6 71% 111 30.08 0.0
20 17:35 SW 13 10.00 Thunderstorm in Vicinity CLR 91.4 80.6 71% 111 30.08 0.0
20 17:15 SW 12 10.00 Fair CLR 91.4 82.4 75% 114 30.08 0.0
20 16:55 SW 13 10.00 Thunderstorm in Vicinity CLR 93.2 80.6 67% 113 30.09 0.0
20 16:35 SW 12 10.00 Thunderstorm in Vicinity CLR 93.2 80.6 67% 113 30.08 0.0
20 16:15 SW 10 G 17 10.00 Fair CLR 93.2 80.6 67% 113 30.09 0.0
20 15:55 S 12 10.00 Fair CLR 93.2 80.6 67% 113 30.09 0.0
20 15:35 S 10 10.00 Fair CLR 93.2 80.6 67% 113 30.09 0.0
20 15:15 SW 10 G 20 10.00 Fair CLR 93.2 80.6 67% 113 30.1 0.0
20 14:55 SW 12 10.00 Fair CLR 93.2 80.6 67% 113 30.11 0.0
20 14:35 SW 13 G 21 10.00 Fair CLR 93.2 80.6 67% 113 30.11 0.0
20 14:15 SW 12 G 17 10.00 Thunderstorm in Vicinity CLR 91.4 80.6 71% 111 30.11 0.0
20 13:55 SW 15 10.00 Thunderstorm in Vicinity CLR 91.4 82.4 75% 114 30.12 0.0
20 13:35 S 13 G 20 6.00 Thunderstorm in Vicinity Haze CLR 93.2 82.4 71% 117 30.13 0.0
20 13:15 S 13 G 22 10.00 Thunderstorm in Vicinity CLR 91.4 82.4 75% 114 30.12 0.0
20 12:55 S 12 G 21 10.00 A Few Clouds FEW040 91.4 82.4 75% 114 30.13 0.0
20 12:35 S 13 G 22 10.00 A Few Clouds FEW034 FEW042 91.4 84.2 80% 118 30.13 0.0
20 12:15 S 12 G 21 10.00 Partly Cloudy FEW034 SCT042 SCT050 91.4 84.2 80% 118 30.12 0.0
20 11:55 S 10 G 20 10.00 Mostly Cloudy FEW029 SCT036 BKN050 91.4 86 84% 123 30.13 0.0
20 11:35 S 8 10.00 Mostly Cloudy SCT029 BKN037 BKN044 89.6 86 89% 119 30.12 0.0
20 11:15 Calm 10.00 Partly Cloudy SCT030 91.4 84.2 80% 118 30.12 0.0
20 10:55 Calm 10.00 Fair CLR 89.6 82.4 79% 111 30.12 0.0
20 10:35 E 12 G 18 10.00 Fair CLR 89.6 84.2 84% 115 30.11 0.0
20 10:15 Vrbl 7 G 16 10.00 Fair CLR 89.6 84.2 84% 115 30.11 0.0
20 09:55 Vrbl 6 G 16 10.00 Fair CLR 87.8 86 94% 116 30.11 0.0
20 09:35 E 12 10.00 Fair CLR 87.8 87.8 100% 120 30.11 0.0
20 09:15 E 8 10.00 Fair CLR 86 86 100% 112 30.11 0.0
20 08:55 E 7 G 14 10.00 Fair CLR 86 86 100% 112 30.1 0.0
20 08:35 E 8 10.00 Fair CLR 84.2 84.2 100% 104 30.1 0.0
20 08:15 E 7 10.00 Fair CLR 84.2 84.2 100% 104 30.09 0.0
20 07:55 E 6 10.00 Fair CLR 84.2 84.2 100% 104 30.09 0.0
20 07:35 Calm 10.00 Fair CLR 82.4 82.4 100% 96 30.09 0.0
20 07:15 SE 5 10.00 Fair CLR 80.6 80.6 100% 89 30.08 0.0
20 06:55 E 10 10.00 Fair CLR 80.6 80.6 100% 89 30.08 0.0
20 06:35 E 8 10.00 Fair CLR 80.6 80.6 100% 89 30.09 0.0
20 06:15 SE 5 10.00 Thunderstorm in Vicinity CLR 80.6 80.6 100% 89 30.07 0.0
20 05:55 SE 7 10.00 Fair CLR 80.6 80.6 100% 89 30.07 0.0
20 05:35 Vrbl 5 10.00 Fair CLR 80.6 80.6 100% 89 30.07 0.0
20 05:15 SE 7 10.00 Fair CLR 80.6 80.6 100% 89 30.07 0.0
20 04:55 SE 6 10.00 Fair CLR 80.6 80.6 100% 89 30.07 0.0
20 04:35 E 7 10.00 Fair CLR 80.6 80.6 100% 89 30.07 0.0
20 04:15 SE 6 10.00 Fair CLR 80.6 80.6 100% 89 30.07 0.0
20 03:55 SE 7 10.00 Fair CLR 80.6 80.6 100% 89 30.06 0.0
20 03:35 SE 6 10.00 Fair CLR 82.4 82.4 100% 96 30.06 0.0
20 03:15 SE 6 10.00 Fair CLR 82.4 82.4 100% 96 30.07 0.0
20 02:55 SE 6 10.00 Fair CLR 82.4 82.4 100% 96 30.07 0.0
20 02:35 E 8 10.00 Fair CLR 82.4 82.4 100% 96 30.08 0.0
20 02:15 E 6 10.00 A Few Clouds FEW060 FEW070 82.4 82.4 100% 96 30.1 0.0
20 01:55 E 6 10.00 Partly Cloudy SCT055 SCT070 82.4 82.4 100% 96 30.11 0.0
20 01:35 SE 5 10.00 A Few Clouds FEW027 82.4 82.4 100% 96 30.11 0.0
20 01:15 SE 6 10.00 A Few Clouds FEW029 82.4 82.4 100% 96 30.12 0.0
20 00:55 Calm 10.00 Fair CLR 84.2 84.2 100% 104 30.11 0.0
20 00:35 SE 6 10.00 Fair CLR 82.4 82.4 100% 96 30.11 0.0
20 00:15 SE 6 10.00 Partly Cloudy FEW029 SCT075 82.4 82.4 100% 96 30.11 0.0
19 23:55 E 5 10.00 Mostly Cloudy FEW028 FEW060 BKN075 84.2 84.2 100% 104 30.11 0.0
19 23:35 E 6 10.00 Partly Cloudy SCT028 SCT035 SCT075 84.2 84.2 100% 104 30.11 0.0
19 23:15 E 6 10.00 Mostly Cloudy SCT029 BKN033 84.2 84.2 100% 104 30.11 0.0
19 22:55 E 6 10.00 A Few Clouds FEW031 84.2 84.2 100% 104 30.11 0.0
19 22:15 E 14 10.00 Mostly Cloudy SCT033 BKN040 BKN055 86 84.2 94% 108 30.1 0.0
19 21:55 Calm 10.00 A Few Clouds FEW033 86 84.2 94% 108 30.09 0.0
19 21:35 E 5 10.00 Fair CLR 87.8 82.4 84% 108 30.09 0.0
19 21:15 E 3 10.00 Fair CLR 87.8 82.4 84% 108 30.09 0.0
19 20:55 Calm 10.00 Fair CLR 87.8 84.2 89% 112 30.08 0.0
19 20:35 Vrbl 3 10.00 Thunderstorm in Vicinity CLR 87.8 82.4 84% 108 30.07 0.0
19 20:15 Calm 10.00 A Few Clouds FEW027 87.8 84.2 89% 112 30.07 0.0
19 19:55 SW 7 G 13 10.00 Fair CLR 89.6 84.2 84% 115 30.07 0.0
19 19:35 SW 9 10.00 A Few Clouds FEW025 89.6 84.2 84% 115 30.06 0.0
19 19:15 SW 9 10.00 A Few Clouds FEW025 89.6 84.2 84% 115 30.05 0.0
19 18:55 W 13 10.00 Fair CLR 89.6 84.2 84% 115 30.03 0.0
19 18:35 S 8 10.00 Fair CLR 89.6 82.4 79% 111 30.03 0.0
19 18:15 S 7 G 16 10.00 Fair CLR 91.4 82.4 75% 114 30.04 0.0
19 17:55 S 8 10.00 Fair CLR 91.4 84.2 80% 118 30.04 0.0
19 17:35 S 10 10.00 Thunderstorm in Vicinity FEW055 91.4 82.4 75% 114 30.04 0.0
19 17:15 S 13 G 22 10.00 Thunderstorm in Vicinity FEW050 91.4 82.4 75% 114 30.05 0.0
19 16:55 S 12 G 20 10.00 Thunderstorm in Vicinity CLR 91.4 82.4 75% 114 30.05 0.0
19 16:35 S 12 G 21 10.00 Thunderstorm in Vicinity CLR 91.4 84.2 80% 118 30.05 0.0
19 16:15 SW 9 G 18 10.00 Thunderstorm in Vicinity CLR 91.4 86 84% 123 30.04 0.0
19 15:55 SW 14 G 21 10.00 Fair CLR 91.4 86 84% 123 30.06 0.0
19 15:35 SW 14 10.00 Fair CLR 91.4 84.2 80% 118 30.06 0.0
19 15:15 S 10 G 18 10.00 Fair CLR 91.4 82.4 75% 114 30.06 0.0
19 14:55 SW 10 G 21 10.00 Thunderstorm in Vicinity CLR 91.4 82.4 75% 114 30.07 0.0
19 14:35 SW 12 G 23 10.00 Fair CLR 91.4 82.4 75% 114 30.08 0.0
19 14:15 SW 14 G 22 10.00 Fair CLR 91.4 82.4 75% 114 30.09 0.0
19 13:55 SW 14 G 20 10.00 Fair CLR 91.4 80.6 71% 111 30.1 0.0
19 13:35 S 14 G 21 10.00 Thunderstorm in Vicinity CLR 91.4 82.4 75% 114 30.1 0.0
19 13:15 S 13 G 20 10.00 Fair CLR 91.4 80.6 71% 111 30.09 0.0
19 12:55 SW 14 G 21 10.00 Fair CLR 91.4 80.6 71% 111 30.1 0.0
19 12:35 S 10 10.00 Fair CLR 91.4 78.8 67% 108 30.1 0.0
19 12:15 S 10 G 20 10.00 Fair CLR 91.4 80.6 71% 111 30.09 0.0
19 11:55 Vrbl 7 G 14 10.00 Fair CLR 89.6 82.4 79% 111 30.1 0.0
19 11:15 S 9 10.00 Fair CLR 91.4 84.2 80% 118 30.1 0.0
19 10:55 Calm 10.00 Fair CLR 89.6 84.2 84% 115 30.1 0.0
19 10:35 Calm 10.00 Mostly Cloudy FEW024 SCT031 BKN060 87.8 84.2 89% 112 30.1 0.0
19 10:15 S 8 10.00 Mostly Cloudy SCT023 BKN030 BKN042 87.8 84.2 89% 112 30.1 0.0
19 09:55 Vrbl 5 10.00 A Few Clouds FEW023 FEW043 87.8 86 94% 116 30.09 0.0
19 09:35 Calm 10.00 Fair CLR 86 86 100% 112 30.09 0.0
19 09:15 SW 3 G 12 10.00 Fair CLR 86 86 100% 112 30.09 0.0
19 08:55 SE 7 10.00 Fair CLR 84.2 84.2 100% 104 30.08 0.0
19 08:35 E 6 10.00 Fair CLR 84.2 84.2 100% 104 30.08 0.0
19 08:15 E 5 10.00 Fair CLR 84.2 84.2 100% 104 30.07 0.0
19 07:55 SE 6 10.00 Fair CLR 82.4 82.4 100% 96 30.06 0.0
19 07:35 SE 6 10.00 Fair CLR 80.6 80.6 100% 89 30.06 0.0
19 06:55 E 8 G 14 10.00 Fair CLR 78.8 78.8 100% 83 30.05 0.0
19 06:35 Vrbl 6 G 12 10.00 Fair CLR 78.8 78.8 100% 83 30.05 0.0
19 06:15 SE 7 10.00 Fair CLR 78.8 78.8 100% 83 30.05 0.0
19 05:55 E 10 10.00 Fair CLR 78.8 78.8 100% 83 30.05 0.0
19 05:35 Vrbl 3 G 12 10.00 Fair CLR 78.8 78.8 100% 83 30.04 0.0
19 05:15 SE 7 10.00 Fair CLR 80.6 80.6 100% 89 30.04 0.0
19 04:55 SE 7 10.00 Fair CLR 78.8 78.8 100% 83 30.03 0.0
19 04:35 SE 6 10.00 Fair CLR 78.8 78.8 100% 83 30.03 0.0
19 04:15 Vrbl 6 G 12 10.00 Fair CLR 78.8 78.8 100% 83 30.04 0.0
19 03:55 E 6 10.00 Fair CLR 78.8 78.8 100% 83 30.04 0.0
19 03:35 E 9 10.00 Fair CLR 78.8 78.8 100% 83 30.04 0.0
19 03:15 E 9 10.00 Fair CLR 78.8 78.8 100% 83 30.05 0.0
19 02:55 Vrbl 7 G 13 10.00 Fair CLR 80.6 80.6 100% 89 30.05 0.0
19 02:35 E 6 10.00 Fair CLR 80.6 80.6 100% 89 30.05 0.0
19 02:15 E 10 10.00 Fair CLR 80.6 80.6 100% 89 30.06 0.0
19 01:55 E 8 10.00 Fair CLR 80.6 80.6 100% 89 30.06 0.0
19 01:35 SE 7 10.00 Fair CLR 80.6 80.6 100% 89 30.06 0.0
19 01:15 E 10 10.00 Fair CLR 80.6 80.6 100% 89 30.06 0.0
19 00:55 E 9 10.00 Fair CLR 80.6 80.6 100% 89 30.08 0.0
19 00:35 SE 8 10.00 Thunderstorm in Vicinity CLR 80.6 80.6 100% 89 30.08 0.0
19 00:15 SE 9 10.00 Fair CLR 80.6 80.6 100% 89 30.09 0.0
18 23:55 SE 8 10.00 Fair CLR 80.6 80.6 100% 89 30.09 0.0
18 23:35 Vrbl 6 G 12 10.00 Fair CLR 80.6 80.6 100% 89 30.09 0.0
18 23:15 SE 7 10.00 Fair CLR 80.6 80.6 100% 89 30.09 0.0
18 22:55 Vrbl 6 10.00 Fair CLR 80.6 80.6 100% 89 30.09 0.0
18 22:35 E 7 10.00 Fair CLR 80.6 80.6 100% 89 30.08 0.0
18 22:15 Vrbl 3 10.00 Fair CLR 80.6 78.8 94% 88 30.07 0.0
18 21:55 Calm 10.00 Fair CLR 82.4 78.8 89% 92 30.06 0.0
18 21:35 E 7 10.00 Fair CLR 82.4 80.6 94% 94 30.06 0.0
18 21:15 NE 9 10.00 Fair CLR 82.4 78.8 89% 92 30.05 0.0
18 20:55 NE 6 10.00 Fair CLR 84.2 77 79% 94 30.06 0.0
18 20:35 NE 6 10.00 Fair CLR 84.2 77 79% 94 30.05 0.0
18 20:15 Calm 10.00 Fair CLR 86 77 75% 97 30.04 0.0
18 19:55 Calm 10.00 Fair CLR 86 75.2 70% 95 30.03 0.0
18 19:35 Vrbl 5 10.00 Fair CLR 86 75.2 70% 95 30.02 0.0
18 19:15 E 6 10.00 Fair CLR 86 75.2 70% 95 30.03 0.0
18 18:55 E 7 G 24 10.00 Thunderstorm in Vicinity CLR 84.2 77 79% 94 30.03 0.0
18 18:35 SE 14 G 24 10.00 Thunderstorm in Vicinity FEW050 FEW075 84.2 77 79% 94 30.04 0.0
18 18:15 SE 13 G 26 10.00 Partly Cloudy FEW031 SCT037 SCT046 84.2 77 79% 94 30.05 0.0
18 17:55 E 17 G 29 10.00 Thunderstorm in Vicinity FEW031 SCT036 86 77 75% 97 30.06 0.0
Date Time (edt) Wind (mph) Vis. (mi.) Weather Sky Cond. Air Dwpt Max. Min. Relative Humidity Wind Chill (°F) Heat Index (°F) altimeter (in) sea level (mb) 1 hr 3 hr 6 hr
6 hour
Temperature (ºF) Pressure Precipitation (in)